Flag Weather past 2 weeks in Mumbai, Maharashtra, India

Now
75 °F

Haze.


Feels Like: 77 °F
Forecast: 79 / 90 °F
Wind: 3 mph from East

Location: Bombay / Santacruz

Current Time: Nov 28, 2014 at 5:12:28 AM

Latest Report: Nov 28, 2014 at 4:40 AM


Visibility: 1 mi

Pressure: 29.83 "Hg

Humidity: 69%

Dew point: 64 °F

Location of MumbaiLocation

Historic Weather in Mumbai — Graph

°F

Mumbai temperature yesterday

Maximum temperature yesterday: 91 °F (at 12:40 PM)
Minimum temperature yesterday: 72 °F (at 6:10 AM)
Average temperature yesterday: 83 °F

Past Weeks' High & Low Weather Summary

 TemperatureHumidityPressure
High95 °F (Nov 13, 1:10 PM)84% (Nov 18, 6:10 AM)29.98 "Hg (Nov 18, 6:10 AM)
Low72 °F (Nov 27, 6:10 AM)24% (Nov 26, 2:40 PM)29.74 "Hg (Nov 26, 3:40 PM)
Average85 °F59%29.88 "Hg
* Reported Nov 13 3:40 AM — Nov 28 3:40 AM, Mumbai, Weather by CustomWeather, © 2014

Note: Actual official high and low records may vary slightly from our data, if they occured in-between our weather recording intervals... More about our weather records

Advertising

Mumbai weather history for previous 24 hours

 ConditionsComfort  
Time TempWeatherWind HumidityBarometerVisibility
3:40 AM
Nov 28
77 °FHaze.5 mph65%29.83 "Hg1 mi
3:10 AM77 °FHaze.No wind69%29.83 "Hg1 mi
2:10 AM77 °FHaze.3 mph69%29.83 "Hg1 mi
1:40 AM79 °FHaze.No wind61%29.83 "Hg1 mi
1:10 AM79 °FHaze.3 mph65%29.83 "Hg1 mi
12:40 AM81 °FClear.No wind54%29.86 "Hg1 mi
12:10 AM81 °FClear.5 mph54%29.86 "Hg1 mi
11:40 PM
Nov 27
81 °FClear.3 mph58%29.86 "Hg1 mi
11:10 PM81 °FClear.3 mph51%29.86 "Hg1 mi
10:40 PM82 °FClear.5 mph48%29.86 "Hg1 mi
10:10 PM82 °FClear.No wind48%29.86 "Hg1 mi
9:10 PM82 °FClear.No wind48%29.86 "Hg1 mi
8:40 PM84 °FClear.5 mph45%29.86 "Hg1 mi
8:10 PM84 °FClear.6 mph45%29.83 "Hg1 mi
7:40 PM84 °FClear.5 mph45%29.83 "Hg1 mi
7:10 PM84 °FClear.8 mph45%29.80 "Hg1 mi
6:40 PM84 °FClear.10 mph51%29.80 "Hg1 mi
6:10 PM84 °FClear.9 mph48%29.80 "Hg1 mi
5:40 PM86 °FClear.7 mph49%29.80 "Hg1 mi
4:40 PM90 °FClear.8 mph41%29.77 "Hg1 mi
4:10 PM90 °FClear.9 mph41%29.77 "Hg1 mi
3:40 PM90 °FClear.8 mph38%29.77 "Hg1 mi
3:10 PM91 °FClear.9 mph32%29.77 "Hg1 mi
2:40 PM91 °FClear.8 mph38%29.77 "Hg1 mi
2:10 PM90 °FClear.9 mph38%29.77 "Hg1 mi
1:40 PM91 °FPassing clouds.8 mph36%29.80 "Hg1 mi
1:10 PM91 °FPassing clouds.3 mph26%29.80 "Hg1 mi
12:40 PM91 °FPassing clouds.5 mph30%29.83 "Hg1 mi
12:10 PM90 °FPassing clouds.3 mph29%29.83 "Hg1 mi
11:40 AM88 °FPassing clouds.7 mph33%29.86 "Hg1 mi
11:10 AM88 °FPassing clouds.7 mph35%29.86 "Hg1 mi
10:40 AM86 °FPassing clouds.6 mph40%29.89 "Hg1 mi
10:10 AM84 °FPassing clouds.7 mph45%29.89 "Hg1 mi
9:40 AM82 °FPassing clouds.7 mph48%29.89 "Hg1 mi
8:40 AM77 °FHaze.7 mph57%29.89 "Hg1 mi
8:10 AM75 °FHaze.6 mph61%29.86 "Hg1 mi
7:40 AM73 °FHaze.7 mph65%29.86 "Hg1 mi
7:10 AM72 °FHaze.5 mph69%29.86 "Hg1 mi
6:40 AM72 °FHaze.5 mph69%29.83 "Hg1 mi
6:10 AM72 °FHaze.5 mph69%29.83 "Hg1 mi
5:40 AM73 °FHaze.5 mph65%29.83 "Hg1 mi
Weather by CustomWeather, © 2014

See weather overviewHow to use our weather pages